Torna al catalogo

NOAA 16 DEB

AttivoPO
NORAD 42345·DEBRIS·🇺🇸 United States

Lanciato Sep 21, 2000 da Vandenberg Space Force Base

Loading…

Prossimi Passaggi (prossime 24 ore)

TLE

AggiornatoSource: Space-Track

Epoca: Sep 12, 2026, 16:55 UTC

1 42345U 00055QM  26255.70530173  .00035941  00000-0  30743-2 0  9995
2 42345  98.7133  59.9227 0014642  54.7890 305.4698 14.97425189543596

Traccia NOAA 16 DEB in tempo reale con AllMySat

Download on the App Store